EZY448 LPMA-LPFR

Flight info

Callsign EZY448
Flight time 1h 26m
Altitude 38000
Route DEGUN DCT NARTA DCT GIMAL
Aircraft A20N/M-SDE2E3FGHIRWXY/LB1

Departure

Time 2026-05-05 19:38
Airport Cristiano Ronaldo International Airport (LPMA)

Arrival

Time 2026-05-05 21:05
Airport Faro - Gago Coutinho International Airport (LPFR)
Time Latitude Longitude Altitude Speed Heading
2026-05-05 19:18 32.69361 -16.77667 180 ft 0 kts 138°
2026-05-05 19:32 32.69374 -16.77681 179 ft 3 kts 138°
2026-05-05 19:32 32.69388 -16.77695 179 ft 2 kts 130°
2026-05-05 19:32 32.69401 -16.77708 179 ft 2 kts 182°
2026-05-05 19:33 32.69411 -16.77706 179 ft 0 kts 226°
2026-05-05 19:35 32.69382 -16.77744 179 ft 14 kts 226°
2026-05-05 19:35 32.69317 -16.77827 179 ft 15 kts 229°
2026-05-05 19:35 32.69294 -16.77869 179 ft 0 kts 251°
2026-05-05 19:36 32.69287 -16.77975 179 ft 23 kts 267°
2026-05-05 19:36 32.69217 -16.78113 179 ft 21 kts 225°
2026-05-05 19:36 32.69104 -16.78246 179 ft 23 kts 225°
2026-05-05 19:37 32.68985 -16.78377 179 ft 23 kts 208°
2026-05-05 19:37 32.68911 -16.78427 179 ft 6 kts 257°
2026-05-05 19:37 32.68930 -16.78432 179 ft 9 kts
2026-05-05 19:37 32.69058 -16.78300 180 ft 57 kts 45°
2026-05-05 19:38 32.69503 -16.77778 180 ft 122 kts 44°
2026-05-05 19:38 32.70225 -16.76933 361 ft 155 kts 44°
2026-05-05 19:38 32.70996 -16.76031 904 ft 157 kts 44°
2026-05-05 19:38 32.71788 -16.75120 1478 ft 159 kts 44°
2026-05-05 19:39 32.72567 -16.74229 1990 ft 165 kts 46°
2026-05-05 19:39 32.73077 -16.72903 2363 ft 196 kts 88°
2026-05-05 19:39 32.72589 -16.71350 2672 ft 216 kts 132°
2026-05-05 19:39 32.71393 -16.70203 3003 ft 230 kts 141°
2026-05-05 19:40 32.70229 -16.68847 3346 ft 238 kts 130°
2026-05-05 19:40 32.69262 -16.67246 3654 ft 240 kts 121°
2026-05-05 19:40 32.68461 -16.65507 3931 ft 242 kts 116°
2026-05-05 19:40 32.67759 -16.63687 4213 ft 243 kts 113°
2026-05-05 19:41 32.67095 -16.61764 4599 ft 262 kts 111°
2026-05-05 19:41 32.66429 -16.59706 5518 ft 268 kts 110°
2026-05-05 19:41 32.65777 -16.57627 6554 ft 270 kts 110°
2026-05-05 19:41 32.65353 -16.55451 7482 ft 274 kts 89°
2026-05-05 19:42 32.65893 -16.53293 8373 ft 278 kts 56°
2026-05-05 19:42 32.67193 -16.51584 9287 ft 282 kts 43°
2026-05-05 19:42 32.68657 -16.50012 10181 ft 286 kts 41°
2026-05-05 19:42 32.70189 -16.48374 10693 ft 307 kts 42°
2026-05-05 19:43 32.71807 -16.46599 11174 ft 325 kts 43°
2026-05-05 19:43 32.73457 -16.44755 11915 ft 333 kts 43°
2026-05-05 19:43 32.75150 -16.42843 12760 ft 339 kts 44°
2026-05-05 19:43 32.76306 -16.41531 13343 ft 342 kts 44°
2026-05-05 19:44 32.77993 -16.39611 14162 ft 346 kts 44°
2026-05-05 19:44 32.79745 -16.37612 14983 ft 351 kts 44°
2026-05-05 19:44 32.81514 -16.35590 15782 ft 355 kts 44°
2026-05-05 19:44 32.83308 -16.33539 16559 ft 359 kts 44°
2026-05-05 19:45 32.85121 -16.31463 17301 ft 363 kts 44°
2026-05-05 19:45 32.86952 -16.29365 17993 ft 363 kts 44°
2026-05-05 19:45 32.88707 -16.27354 18157 ft 344 kts 44°
2026-05-05 19:45 32.90459 -16.25344 18335 ft 363 kts 44°
2026-05-05 19:46 32.92303 -16.23227 18865 ft 371 kts 44°
2026-05-05 19:46 32.94174 -16.21079 19508 ft 373 kts 44°
2026-05-05 19:46 32.95979 -16.19004 19835 ft 349 kts 44°
2026-05-05 19:46 32.97699 -16.17027 20271 ft 345 kts 44°
2026-05-05 19:47 32.99463 -16.14997 20565 ft 360 kts 44°
2026-05-05 19:47 33.01304 -16.12877 20835 ft 375 kts 44°
2026-05-05 19:47 33.03204 -16.10689 21268 ft 385 kts 44°
2026-05-05 19:47 33.05146 -16.08451 21830 ft 390 kts 44°
2026-05-05 19:48 33.07102 -16.06194 22408 ft 394 kts 44°
2026-05-05 19:48 33.09080 -16.03911 22972 ft 397 kts 44°
2026-05-05 19:48 33.11074 -16.01609 23514 ft 401 kts 44°
2026-05-05 19:48 33.13085 -15.99284 24044 ft 404 kts 44°
2026-05-05 19:49 33.15111 -15.96941 24549 ft 407 kts 44°
2026-05-05 19:49 33.17152 -15.94579 25037 ft 411 kts 44°
2026-05-05 19:49 33.19209 -15.92196 25509 ft 414 kts 44°
2026-05-05 19:49 33.21282 -15.89794 25966 ft 417 kts 44°
2026-05-05 19:50 33.23373 -15.87370 26403 ft 420 kts 44°
2026-05-05 19:50 33.25475 -15.84930 26831 ft 422 kts 44°
2026-05-05 19:50 33.27565 -15.82503 27239 ft 425 kts 44°
2026-05-05 19:50 33.29694 -15.80029 27646 ft 428 kts 44°
2026-05-05 19:51 33.31837 -15.77537 28032 ft 430 kts 44°
2026-05-05 19:51 33.33991 -15.75029 28408 ft 433 kts 44°
2026-05-05 19:51 33.36161 -15.72502 28773 ft 436 kts 44°
2026-05-05 19:51 33.38339 -15.69963 29133 ft 438 kts 44°
2026-05-05 19:52 33.40529 -15.67409 29481 ft 441 kts 44°
2026-05-05 19:52 33.42735 -15.64856 29817 ft 443 kts 44°
2026-05-05 19:52 33.44975 -15.62312 30145 ft 445 kts 43°
2026-05-05 19:52 33.47214 -15.59797 30463 ft 448 kts 43°
2026-05-05 19:53 33.49527 -15.57207 30781 ft 450 kts 43°
2026-05-05 19:53 33.51787 -15.54676 31169 ft 449 kts 43°
2026-05-05 19:53 33.54067 -15.52118 31602 ft 448 kts 43°
2026-05-05 19:53 33.56338 -15.49564 32004 ft 447 kts 43°
2026-05-05 19:54 33.58599 -15.47016 32384 ft 446 kts 43°
2026-05-05 19:54 33.60862 -15.44463 32750 ft 446 kts 43°
2026-05-05 19:54 33.63119 -15.41913 33104 ft 445 kts 43°
2026-05-05 19:54 33.65371 -15.39366 33445 ft 444 kts 43°
2026-05-05 19:55 33.67624 -15.36815 33771 ft 444 kts 43°
2026-05-05 19:55 33.69866 -15.34276 34095 ft 443 kts 43°
2026-05-05 19:55 33.72081 -15.31766 34402 ft 442 kts 43°
2026-05-05 19:55 33.74321 -15.29225 34700 ft 442 kts 43°
2026-05-05 19:56 33.76553 -15.26691 34985 ft 441 kts 43°
2026-05-05 19:56 33.78783 -15.24158 35275 ft 441 kts 43°
2026-05-05 19:56 33.81017 -15.21618 35534 ft 440 kts 43°
2026-05-05 19:56 33.83242 -15.19088 35792 ft 440 kts 43°
2026-05-05 19:57 33.85464 -15.16558 36053 ft 440 kts 43°
2026-05-05 19:57 33.89922 -15.11479 36139 ft 453 kts 40°
2026-05-05 19:58 33.94565 -15.06187 36143 ft 464 kts 40°
2026-05-05 19:58 33.99290 -15.00786 36312 ft 472 kts 40°
2026-05-05 19:58 34.01681 -14.98047 36417 ft 475 kts 40°
2026-05-05 19:59 34.04081 -14.95296 36580 ft 476 kts 40°
2026-05-05 19:59 34.06487 -14.92535 36791 ft 477 kts 40°
2026-05-05 19:59 34.08888 -14.89778 37048 ft 476 kts 40°
2026-05-05 19:59 34.11287 -14.87021 37334 ft 475 kts 40°
2026-05-05 20:00 34.13641 -14.84313 37557 ft 474 kts 40°
2026-05-05 20:00 34.16033 -14.81561 37748 ft 475 kts 40°
2026-05-05 20:00 34.18422 -14.78811 37944 ft 475 kts 40°
2026-05-05 20:00 34.20840 -14.76024 38115 ft 475 kts 40°
2026-05-05 20:01 34.23239 -14.73259 38137 ft 476 kts 40°
2026-05-05 20:01 34.28023 -14.67735 38137 ft 474 kts 40°
2026-05-05 20:02 34.32763 -14.62253 38138 ft 474 kts 40°
2026-05-05 20:02 34.37528 -14.56733 38163 ft 474 kts 40°
2026-05-05 20:03 34.42294 -14.51202 38141 ft 474 kts 40°
2026-05-05 20:03 34.47062 -14.45661 38141 ft 474 kts 40°
2026-05-05 20:04 34.51578 -14.40403 38143 ft 474 kts 40°
2026-05-05 20:04 34.56298 -14.34899 38143 ft 474 kts 40°
2026-05-05 20:05 34.61055 -14.29342 38145 ft 474 kts 40°
2026-05-05 20:05 34.65808 -14.23782 38146 ft 474 kts 40°
2026-05-05 20:06 34.70527 -14.18250 38144 ft 474 kts 40°
2026-05-05 20:06 34.75266 -14.12687 38145 ft 474 kts 40°
2026-05-05 20:07 34.80013 -14.07106 38144 ft 474 kts 41°
2026-05-05 20:07 34.84752 -14.01523 38145 ft 474 kts 41°
2026-05-05 20:08 34.89493 -13.95930 38147 ft 474 kts 41°
2026-05-05 20:08 34.94194 -13.90373 38143 ft 474 kts 41°
2026-05-05 20:09 34.98818 -13.84899 38141 ft 473 kts 41°
2026-05-05 20:09 35.03541 -13.79297 38149 ft 473 kts 41°
2026-05-05 20:10 35.08266 -13.73687 38148 ft 477 kts 41°
2026-05-05 20:10 35.13021 -13.68029 38149 ft 475 kts 41°
2026-05-05 20:11 35.17735 -13.62407 38144 ft 473 kts 41°
2026-05-05 20:11 35.22449 -13.56778 38151 ft 473 kts 41°
2026-05-05 20:12 35.27124 -13.51188 38146 ft 473 kts 41°
2026-05-05 20:12 35.31827 -13.45553 38152 ft 473 kts 41°
2026-05-05 20:13 35.36532 -13.39906 38146 ft 473 kts 41°
2026-05-05 20:13 35.41244 -13.34242 38144 ft 473 kts 41°
2026-05-05 20:14 35.45911 -13.28621 38151 ft 473 kts 41°
2026-05-05 20:14 35.50617 -13.22944 38149 ft 473 kts 41°
2026-05-05 20:15 35.55307 -13.17276 38142 ft 473 kts 41°
2026-05-05 20:15 35.59989 -13.11608 38143 ft 472 kts 41°
2026-05-05 20:16 35.64668 -13.05934 38140 ft 472 kts 41°
2026-05-05 20:16 35.69318 -13.00286 38147 ft 472 kts 41°
2026-05-05 20:17 35.73989 -12.94601 38138 ft 472 kts 41°
2026-05-05 20:17 35.78662 -12.88904 38144 ft 472 kts 41°
2026-05-05 20:18 35.83341 -12.83191 38149 ft 472 kts 41°
2026-05-05 20:18 35.88009 -12.77480 38149 ft 472 kts 41°
2026-05-05 20:19 35.92643 -12.71802 38150 ft 472 kts 42°
2026-05-05 20:19 35.97303 -12.66082 38146 ft 472 kts 42°
2026-05-05 20:20 36.01174 -12.61322 38148 ft 472 kts 42°
2026-05-05 20:20 36.05284 -12.55020 38147 ft 476 kts 64°
2026-05-05 20:20 36.06372 -12.51162 38153 ft 476 kts 75°
2026-05-05 20:21 36.07153 -12.47181 38148 ft 478 kts 77°
2026-05-05 20:21 36.08572 -12.39140 38148 ft 479 kts 78°
2026-05-05 20:21 36.09273 -12.35101 38001 ft 480 kts 78°
2026-05-05 20:22 36.09973 -12.31071 37721 ft 480 kts 78°
2026-05-05 20:22 36.10671 -12.27043 37453 ft 480 kts 78°
2026-05-05 20:22 36.11372 -12.22997 37194 ft 480 kts 78°
2026-05-05 20:22 36.12065 -12.19007 36926 ft 480 kts 77°
2026-05-05 20:23 36.12763 -12.14959 36690 ft 480 kts 78°
2026-05-05 20:23 36.13457 -12.10924 36437 ft 481 kts 78°
2026-05-05 20:23 36.14151 -12.06872 36175 ft 481 kts 78°
2026-05-05 20:23 36.14845 -12.02823 35930 ft 481 kts 78°
2026-05-05 20:24 36.15537 -11.98773 35682 ft 481 kts 78°
2026-05-05 20:24 36.16230 -11.94714 35436 ft 481 kts 78°
2026-05-05 20:24 36.16921 -11.90654 35191 ft 482 kts 78°
2026-05-05 20:24 36.17610 -11.86598 34947 ft 482 kts 78°
2026-05-05 20:25 36.18300 -11.82529 34704 ft 482 kts 78°
2026-05-05 20:25 36.18979 -11.78515 34470 ft 482 kts 78°
2026-05-05 20:25 36.19667 -11.74441 34234 ft 482 kts 78°
2026-05-05 20:25 36.20354 -11.70367 33977 ft 483 kts 78°
2026-05-05 20:26 36.21038 -11.66298 33703 ft 483 kts 78°
2026-05-05 20:26 36.21720 -11.62234 33434 ft 483 kts 78°
2026-05-05 20:26 36.22401 -11.58161 33166 ft 482 kts 78°
2026-05-05 20:26 36.23079 -11.54108 32895 ft 480 kts 78°
2026-05-05 20:27 36.23754 -11.50061 32624 ft 478 kts 78°
2026-05-05 20:27 36.24423 -11.46034 32376 ft 476 kts 78°
2026-05-05 20:27 36.25088 -11.42024 32122 ft 475 kts 78°
2026-05-05 20:27 36.25751 -11.38019 31863 ft 473 kts 78°
2026-05-05 20:28 36.26408 -11.34039 31613 ft 471 kts 79°
2026-05-05 20:28 36.27063 -11.30068 31362 ft 469 kts 78°
2026-05-05 20:28 36.27712 -11.26117 31108 ft 467 kts 78°
2026-05-05 20:28 36.28351 -11.22228 30862 ft 466 kts 78°
2026-05-05 20:29 36.28994 -11.18299 30595 ft 464 kts 78°
2026-05-05 20:29 36.29635 -11.14373 30075 ft 463 kts 78°
2026-05-05 20:29 36.30268 -11.10491 29632 ft 457 kts 78°
2026-05-05 20:29 36.30895 -11.06639 29191 ft 452 kts 78°
2026-05-05 20:30 36.31514 -11.02826 28740 ft 448 kts 78°
2026-05-05 20:30 36.32124 -10.99059 28281 ft 444 kts 78°
2026-05-05 20:30 36.32729 -10.95317 27835 ft 440 kts 78°
2026-05-05 20:30 36.33327 -10.91614 27397 ft 437 kts 78°
2026-05-05 20:31 36.33912 -10.87981 26975 ft 433 kts 78°
2026-05-05 20:31 36.34497 -10.84341 26552 ft 429 kts 78°
2026-05-05 20:31 36.35076 -10.80725 26135 ft 425 kts 78°
2026-05-05 20:31 36.35649 -10.77147 25724 ft 422 kts 78°
2026-05-05 20:32 36.36217 -10.73593 25330 ft 418 kts 78°
2026-05-05 20:32 36.36778 -10.70071 25146 ft 415 kts 78°
2026-05-05 20:32 36.37338 -10.66551 25122 ft 416 kts 78°
2026-05-05 20:32 36.37898 -10.63021 25121 ft 416 kts 78°
2026-05-05 20:33 36.38457 -10.59498 25123 ft 416 kts 78°
2026-05-05 20:33 36.39015 -10.55966 25120 ft 416 kts 78°
2026-05-05 20:33 36.39572 -10.52436 25119 ft 416 kts 78°
2026-05-05 20:33 36.40129 -10.48902 25118 ft 416 kts 78°
2026-05-05 20:34 36.40676 -10.45421 25119 ft 416 kts 79°
2026-05-05 20:34 36.41231 -10.41886 25116 ft 417 kts 79°
2026-05-05 20:34 36.41783 -10.38358 25116 ft 417 kts 79°
2026-05-05 20:34 36.42337 -10.34817 25116 ft 417 kts 79°
2026-05-05 20:35 36.42887 -10.31285 25116 ft 417 kts 79°
2026-05-05 20:35 36.43438 -10.27748 25111 ft 417 kts 79°
2026-05-05 20:35 36.43986 -10.24218 25111 ft 417 kts 79°
2026-05-05 20:35 36.44535 -10.20677 25110 ft 417 kts 79°
2026-05-05 20:36 36.45080 -10.17149 25111 ft 416 kts 79°
2026-05-05 20:36 36.45626 -10.13609 25110 ft 416 kts 79°
2026-05-05 20:36 36.46170 -10.10084 25107 ft 416 kts 79°
2026-05-05 20:36 36.46705 -10.06601 25108 ft 416 kts 79°
2026-05-05 20:37 36.47246 -10.03072 25110 ft 416 kts 79°
2026-05-05 20:37 36.47787 -9.99541 25110 ft 416 kts 79°
2026-05-05 20:37 36.48326 -9.96010 25108 ft 416 kts 79°
2026-05-05 20:37 36.48866 -9.92467 25108 ft 416 kts 79°
2026-05-05 20:38 36.49405 -9.88929 25106 ft 416 kts 79°
2026-05-05 20:38 36.49942 -9.85389 25108 ft 416 kts 79°
2026-05-05 20:38 36.50470 -9.81905 25105 ft 416 kts 79°
2026-05-05 20:38 36.51005 -9.78365 25105 ft 416 kts 79°
2026-05-05 20:39 36.51539 -9.74826 25105 ft 416 kts 79°
2026-05-05 20:39 36.52072 -9.71287 25105 ft 416 kts 79°
2026-05-05 20:39 36.52603 -9.67751 25097 ft 416 kts 79°
2026-05-05 20:39 36.53134 -9.64213 25097 ft 416 kts 79°
2026-05-05 20:40 36.53662 -9.60681 25100 ft 416 kts 79°
2026-05-05 20:40 36.54191 -9.57138 25100 ft 416 kts 79°
2026-05-05 20:40 36.54717 -9.53605 25097 ft 416 kts 79°
2026-05-05 20:40 36.55244 -9.50061 25097 ft 416 kts 79°
2026-05-05 20:41 36.55762 -9.46571 25094 ft 416 kts 79°
2026-05-05 20:41 36.56286 -9.43033 25095 ft 416 kts 79°
2026-05-05 20:41 36.56809 -9.39489 25087 ft 416 kts 79°
2026-05-05 20:41 36.57329 -9.35964 24714 ft 414 kts 79°
2026-05-05 20:42 36.57846 -9.32455 24340 ft 410 kts 79°
2026-05-05 20:42 36.58355 -9.28985 23958 ft 407 kts 79°
2026-05-05 20:42 36.58860 -9.25535 23523 ft 404 kts 79°
2026-05-05 20:42 36.59362 -9.22099 23056 ft 401 kts 79°
2026-05-05 20:43 36.59858 -9.18694 22550 ft 399 kts 79°
2026-05-05 20:43 36.60351 -9.15312 22108 ft 395 kts 79°
2026-05-05 20:43 36.60837 -9.11964 21653 ft 392 kts 79°
2026-05-05 20:43 36.61321 -9.08623 21180 ft 390 kts 79°
2026-05-05 20:44 36.61787 -9.05401 20721 ft 388 kts 79°
2026-05-05 20:44 36.62264 -9.02099 20210 ft 388 kts 79°
2026-05-05 20:44 36.62738 -8.98807 19814 ft 384 kts 79°
2026-05-05 20:44 36.63207 -8.95547 19378 ft 381 kts 78°
2026-05-05 20:45 36.64132 -8.89092 18567 ft 375 kts 79°
2026-05-05 20:45 36.64582 -8.85945 18060 ft 374 kts 79°
2026-05-05 20:45 36.65036 -8.82764 17625 ft 370 kts 79°
2026-05-05 20:46 36.65482 -8.79626 17163 ft 367 kts 78°
2026-05-05 20:46 36.65928 -8.76491 16655 ft 366 kts 78°
2026-05-05 20:46 36.66368 -8.73388 16290 ft 361 kts 78°
2026-05-05 20:46 36.66804 -8.70307 15727 ft 362 kts 79°
2026-05-05 20:47 36.67243 -8.67207 15271 ft 360 kts 79°
2026-05-05 20:47 36.67671 -8.64166 14934 ft 354 kts 78°
2026-05-05 20:47 36.68096 -8.61148 14455 ft 354 kts 79°
2026-05-05 20:47 36.68516 -8.58159 14197 ft 345 kts 79°
2026-05-05 20:48 36.68922 -8.55263 14019 ft 335 kts 79°
2026-05-05 20:48 36.69311 -8.52480 13856 ft 324 kts 79°
2026-05-05 20:48 36.69690 -8.49762 13712 ft 313 kts 79°
2026-05-05 20:48 36.70057 -8.47129 13530 ft 304 kts 79°
2026-05-05 20:49 36.70413 -8.44569 13384 ft 294 kts 78°
2026-05-05 20:49 36.70756 -8.42099 13229 ft 285 kts 78°
2026-05-05 20:49 36.71093 -8.39672 12911 ft 283 kts 79°
2026-05-05 20:49 36.71429 -8.37250 12560 ft 282 kts 78°
2026-05-05 20:50 36.71761 -8.34857 12319 ft 277 kts 79°
2026-05-05 20:50 36.72087 -8.32493 11951 ft 278 kts 79°
2026-05-05 20:50 36.72416 -8.30110 11571 ft 278 kts 79°
2026-05-05 20:50 36.72742 -8.27745 11319 ft 274 kts 79°
2026-05-05 20:51 36.73062 -8.25413 11011 ft 273 kts 79°
2026-05-05 20:51 36.73379 -8.23107 10643 ft 274 kts 79°
2026-05-05 20:51 36.73699 -8.20776 10398 ft 270 kts 79°
2026-05-05 20:51 36.74012 -8.18486 10111 ft 268 kts 79°
2026-05-05 20:52 36.74327 -8.16187 9745 ft 269 kts 78°
2026-05-05 20:52 36.74639 -8.13902 9442 ft 266 kts 79°
2026-05-05 20:52 36.74944 -8.11657 9194 ft 260 kts 78°
2026-05-05 20:52 36.75248 -8.09427 8836 ft 260 kts 79°
2026-05-05 20:53 36.75549 -8.07210 8531 ft 258 kts 79°
2026-05-05 20:53 36.75847 -8.05020 8256 ft 254 kts 79°
2026-05-05 20:53 36.76136 -8.02881 7954 ft 252 kts 79°
2026-05-05 20:53 36.76483 -8.00744 7631 ft 250 kts 71°
2026-05-05 20:54 36.77050 -7.98709 7361 ft 246 kts 67°
2026-05-05 20:54 36.77678 -7.96738 7083 ft 243 kts 66°
2026-05-05 20:54 36.78311 -7.94787 6800 ft 241 kts 65°
2026-05-05 20:54 36.78940 -7.92855 6503 ft 239 kts 67°
2026-05-05 20:55 36.79564 -7.90933 6206 ft 238 kts 66°
2026-05-05 20:55 36.80182 -7.89023 5925 ft 236 kts 66°
2026-05-05 20:55 36.80795 -7.87130 5596 ft 235 kts 65°
2026-05-05 20:55 36.81405 -7.85244 5259 ft 235 kts 66°
2026-05-05 20:56 36.82013 -7.83359 4958 ft 233 kts 66°
2026-05-05 20:56 36.82613 -7.81498 4658 ft 230 kts 66°
2026-05-05 20:56 36.83212 -7.79640 4331 ft 230 kts 66°
2026-05-05 20:56 36.83800 -7.77813 4058 ft 229 kts 66°
2026-05-05 20:57 36.84388 -7.75986 3995 ft 226 kts 65°
2026-05-05 20:57 36.84977 -7.74158 3992 ft 227 kts 66°
2026-05-05 20:57 36.85570 -7.72320 3998 ft 229 kts 65°
2026-05-05 20:57 36.86294 -7.70566 3995 ft 226 kts 52°
2026-05-05 20:58 36.87396 -7.69220 3995 ft 222 kts 31°
2026-05-05 20:58 36.88814 -7.68494 3995 ft 222 kts 11°
2026-05-05 20:58 36.90337 -7.68230 3997 ft 221 kts
2026-05-05 20:58 36.91867 -7.68071 3993 ft 219 kts
2026-05-05 20:59 36.93392 -7.67927 3990 ft 221 kts
2026-05-05 20:59 36.94928 -7.68008 3992 ft 222 kts 349°
2026-05-05 20:59 36.96351 -7.68741 4000 ft 223 kts 327°
2026-05-05 20:59 36.97415 -7.70142 3997 ft 225 kts 303°
2026-05-05 21:00 36.97960 -7.71987 3995 ft 229 kts 285°
2026-05-05 21:00 36.98121 -7.73926 4066 ft 218 kts 276°
2026-05-05 21:00 36.98281 -7.75738 4119 ft 200 kts 290°
2026-05-05 21:00 36.98561 -7.77400 3856 ft 195 kts 281°
2026-05-05 21:01 36.98671 -7.79078 3597 ft 189 kts 278°
2026-05-05 21:01 36.98856 -7.80637 3441 ft 174 kts 287°
2026-05-05 21:01 36.99306 -7.81957 3205 ft 164 kts 295°
2026-05-05 21:01 36.99530 -7.83349 2940 ft 165 kts 277°
2026-05-05 21:02 36.99603 -7.84746 2720 ft 157 kts 284°
2026-05-05 21:02 36.99824 -7.86012 2621 ft 142 kts 293°
2026-05-05 21:02 37.00056 -7.87197 2347 ft 138 kts 291°
2026-05-05 21:02 37.00243 -7.88345 2046 ft 131 kts 288°
2026-05-05 21:03 37.00388 -7.89461 1712 ft 129 kts 289°
2026-05-05 21:03 37.00538 -7.90532 1376 ft 124 kts 288°
2026-05-05 21:03 37.00724 -7.91657 1112 ft 135 kts 285°
2026-05-05 21:03 37.00867 -7.92800 836 ft 128 kts 284°
2026-05-05 21:04 37.01046 -7.93868 620 ft 121 kts 283°
2026-05-05 21:04 37.01194 -7.94876 335 ft 117 kts 283°
2026-05-05 21:04 37.01342 -7.95873 87 ft 117 kts 285°
2026-05-05 21:04 37.01474 -7.96787 28 ft 89 kts 279°
2026-05-05 21:05 37.01542 -7.97259 25 ft 44 kts 281°
2026-05-05 21:05 37.01591 -7.97604 22 ft 27 kts 279°
2026-05-05 21:05 37.01620 -7.97800 22 ft 4 kts 287°
2026-05-05 21:05 37.01639 -7.97839 23 ft 6 kts 321°
2026-05-05 21:06 37.01692 -7.97838 23 ft 7 kts 27°
2026-05-05 21:06 37.01715 -7.97813 23 ft 0 kts 47°
2026-05-05 21:06 37.01743 -7.97757 23 ft 13 kts 71°
2026-05-05 21:07 37.01764 -7.97628 23 ft 18 kts 88°
2026-05-05 21:07 37.01762 -7.97467 23 ft 15 kts 66°
2026-05-05 21:07 37.01829 -7.97375 26 ft 13 kts 46°
2026-05-05 21:07 37.01838 -7.97255 23 ft 16 kts 99°
2026-05-05 21:08 37.01822 -7.97131 24 ft 2 kts 98°
2026-05-05 21:08 37.01815 -7.97078 25 ft 13 kts 99°
2026-05-05 21:08 37.01827 -7.96977 27 ft 11 kts 42°
2026-05-05 21:08 37.01895 -7.96977 23 ft 9 kts 355°
2026-05-05 21:09 37.01928 -7.96975 27 ft 0 kts